CZ-3B DEB, 40193

Orbit data source: Space-Track

CZ-3B DEB, 40193 is space debris in HEO originally from a launch on Mon, 19 Dec 2011 UTC launched from the Xichang Space Center, China (XSC). Debris objects in space refer to the collection of defunct objects orbiting the Earth. Examples of debris include non-operational satellites, rocket bodies, and fragments generated from explosions, collisions, or faulty payload assembly.

Loading next visibility...
CZ-3B DEB details
Identifier
40193, 2011-077S
Orbit
HEO
Last TLE update14 hours ago
Origin
Flag of CNCASC (CN / PRC)
ManufacturerCALT
MissionSpacecraft
Bus & MotorUnknown
MassUnknown
Launch date (UTC)
2011-12-19 (13 years ago)
Launch vehicleUnknown
Launch site
Xichang Space Center, China (XSC)
Object type
Payload
Rocket body
Debris
Shape & HBRUnknown
Radar Cross SectionMedium (>0.1 m² and <1 m²)

Expand to show TLE details & history

TLE from 14 hours ago
0 CZ-3B DEB
1 40193U 11077S   24338.79244539  .00000121  00000-0  17032-2 0  9995
2 40193  25.1027 177.4561 7469879  91.3202 346.4745  1.86768364 65681
Epoch: 2024-12-03T19:01Z
Definitive object data (Epoch: 2024-12-03T19:01:07.281Z)
Latitude-0.00002°
Longitude179.1746°
Altitude6,082.768 km
Speed7.047 km/s
True Right ascension11h 50m 12s
True Declination0° 00' 00"
Sunlit
Object was in daylight at TLE epoch
Visualization TLE readout
Latitude-2.53628°
Longitude4.41392°
Altitude6,648.896 km
Speed6.847 km/s
Apparent Right ascension22h 53m 38s
Apparent Declination-17° 39' 43"
Sunlit
Object is in daylight
Visualization observer readout
Local Sidereal Time06:46:19
Azimuth273.809° WNW
Elevation-32.662°
Doppler factor1
Orbital elements
Apogee altitude42,286.973 km
Perigee altitude669.915 km
Semi-major axis27,856.581 km
Eccentricity0.7469879
Inclination25.1027°
RAAN177.4561°
Arg. of periapsis91.3202°
True anomaly268.95879°
Mean anomaly346.4745°
Eccentric anomaly317.63315°
Mean motion0.46682 °/min
BSTAR0.0017032
Orbital period771.17 mins
Loading maneuver chart data...
Loading historical data...
Loading historical data...
Loading historical data...
Loading historical data...
Loading historical data...
Loading historical data...
Loading historical data...

CZ-3B DEB Visibility forecast

Observer location: undefined°, undefined

Span
Click to sort rows by Start time (UTC) header in descending order
Start Az.
Max El. time (UTC)
Max El. Az.
Max El.
End time (UTC)
End Az.
4 mins2024-12-04 21:14:07.650Z203.764° SW2024-12-04 21:16:07.650Z171.827° S13.569°2024-12-04 21:18:07.650Z148.274° SSE
|